| time (UTC) | temp F | wind direction | speed knots | gust knots | rain 1hr in | rain 24hr in | rain mn in | humidity % | barometer mb |
| 20260502204221 | 71 | 9 | 2.6 | 8.7 | 0.00 | 0.00 | 0.00 | 57 | 1016.6 |
| 20260502203728 | 70 | 300 | 1.7 | 8.7 | 0.00 | 0.00 | 0.00 | 58 | 1016.7 |
| 20260502203256 | 70 | 324 | 2.6 | 7.0 | 0.00 | 0.00 | 0.00 | 58 | 1016.7 |
| 20260502203224 | 70 | 324 | 2.6 | 7.0 | 0.00 | 0.00 | 0.00 | 58 | 1016.7 |
| 20260502202811 | 70 | 264 | 1.7 | 7.0 | 0.00 | 0.00 | 0.00 | 60 | 1016.7 |
| 20260502202739 | 70 | 264 | 1.7 | 7.0 | 0.00 | 0.00 | 0.00 | 60 | 1016.7 |
| 20260502202227 | 69 | 327 | 3.5 | 7.0 | 0.00 | 0.00 | 0.00 | 59 | 1016.7 |
| 20260502201735 | 69 | 342 | 3.5 | 9.6 | 0.00 | 0.00 | 0.00 | 60 | 1016.9 |
| 20260502201223 | 69 | 232 | 2.6 | 7.0 | 0.00 | 0.00 | 0.00 | 60 | 1016.9 |
| 20260502200731 | 69 | 360 | 1.7 | 9.6 | 0.00 | 0.00 | 0.00 | 61 | 1016.9 |
| 20260502200239 | 69 | 312 | 3.5 | 7.0 | 0.00 | 0.00 | 0.00 | 59 | 1016.9 |
| 20260502195730 | 69 | 5 | 2.6 | 8.7 | 0.00 | 0.00 | 0.00 | 61 | 1017.1 |
| 20260502195238 | 69 | 294 | 1.7 | 8.7 | 0.00 | 0.00 | 0.00 | 61 | 1017.0 |
| 20260502194726 | 69 | 23 | 1.7 | 5.2 | 0.00 | 0.00 | 0.00 | 61 | 1017.0 |
| 20260502194234 | 68 | 324 | 1.7 | 7.0 | 0.00 | 0.00 | 0.00 | 62 | 1017.1 |
| 20260502193802 | 68 | 273 | 3.5 | 7.0 | 0.00 | 0.00 | 0.00 | 61 | 1017.1 |
| 20260502193238 | 68 | 322 | 1.7 | 3.5 | 0.00 | 0.00 | 0.00 | 61 | 1017.1 |
| 20260502192725 | 67 | 5 | 0.9 | 7.0 | 0.00 | 0.00 | 0.00 | 63 | 1017.3 |
| 20260502192233 | 67 | 218 | 2.6 | 8.7 | 0.00 | 0.00 | 0.00 | 63 | 1017.5 |
| 20260502191721 | 67 | 323 | 3.5 | 8.7 | 0.00 | 0.00 | 0.00 | 62 | 1017.5 |
| 20260502191229 | 67 | 17 | 2.6 | 5.2 | 0.00 | 0.00 | 0.00 | 62 | 1017.4 |
| 20260502190721 | 67 | 28 | 1.7 | 4.3 | 0.00 | 0.00 | 0.00 | 62 | 1017.4 |
| 20260502190305 | 67 | 355 | 0.9 | 4.3 | 0.00 | 0.00 | 0.00 | 64 | 1017.5 |
| 20260502185725 | 66 | 238 | 0.9 | 7.0 | 0.00 | 0.00 | 0.00 | 64 | 1017.6 |
| 20260502185233 | 65 | 348 | 3.5 | 8.7 | 0.00 | 0.00 | 0.00 | 64 | 1017.5 |
| 20260502184801 | 66 | 250 | 3.5 | 8.7 | 0.00 | 0.00 | 0.00 | 65 | 1017.6 |
| 20260502184729 | 66 | 250 | 3.5 | 8.7 | 0.00 | 0.00 | 0.00 | 65 | 1017.6 |
| 20260502184237 | 65 | 355 | 2.6 | 6.1 | 0.00 | 0.00 | 0.00 | 63 | 1017.5 |
| 20260502183725 | 65 | 349 | 0.9 | 4.3 | 0.00 | 0.00 | 0.00 | 66 | 1017.5 |
| 20260502183313 | 65 | 5 | 2.6 | 4.3 | 0.00 | 0.00 | 0.00 | 67 | 1017.5 |
| 20260502182727 | 64 | 350 | 2.6 | 4.3 | 0.00 | 0.00 | 0.00 | 66 | 1017.5 |
| 20260502182254 | 64 | 290 | 1.7 | 5.2 | 0.00 | 0.00 | 0.00 | 66 | 1017.5 |
| 20260502181731 | 64 | 22 | 0.9 | 7.0 | 0.00 | 0.00 | 0.00 | 67 | 1017.6 |
| 20260502181259 | 64 | 285 | 1.7 | 7.0 | 0.00 | 0.00 | 0.00 | 67 | 1017.7 |
| 20260502180735 | 64 | 355 | 1.7 | 6.1 | 0.00 | 0.00 | 0.00 | 67 | 1017.7 |
| 20260502180223 | 64 | 355 | 2.6 | 6.1 | 0.00 | 0.00 | 0.00 | 66 | 1017.6 |
| 20260502170239 | 59 | 344 | 2.6 | 6.1 | 0.00 | 0.00 | 0.00 | 76 | 1017.7 |
| 20260502164230 | 58 | 311 | 1.7 | 6.1 | 0.00 | 0.00 | 0.00 | 78 | 1017.7 |
| 20260502163758 | 58 | 347 | 2.6 | 6.1 | 0.00 | 0.00 | 0.00 | 79 | 1017.7 |
| 20260502163235 | 57 | 355 | 0.9 | 2.6 | 0.00 | 0.00 | 0.00 | 80 | 1017.9 |
| 20260502162726 | 57 | 307 | 1.7 | 7.0 | 0.00 | 0.00 | 0.00 | 81 | 1018.1 |
| 20260502162254 | 56 | 306 | 2.6 | 7.0 | 0.00 | 0.00 | 0.00 | 83 | 1018.0 |
| 20260502161730 | 56 | 10 | 0.9 | 1.7 | 0.00 | 0.00 | 0.00 | 83 | 1018.0 |
| 20260502161238 | 55 | 320 | 0.9 | 1.7 | 0.00 | 0.00 | 0.00 | 84 | 1017.9 |
| 20260502160726 | 55 | 280 | 0.0 | 1.7 | 0.00 | 0.00 | 0.00 | 86 | 1018.0 |
| 20260502160234 | 54 | 254 | 0.9 | 1.7 | 0.00 | 0.00 | 0.00 | 87 | 1018.0 |
| 20260502152227 | 53 | 315 | 0.9 | 1.7 | 0.00 | 0.00 | 0.00 | 89 | 1017.7 |
| 20260502151735 | 53 | 312 | 0.0 | 0.9 | 0.00 | 0.00 | 0.00 | 89 | 1017.9 |
| 20260502151223 | 52 | 338 | 0.0 | 0.9 | 0.00 | 0.00 | 0.00 | 90 | 1017.7 |
| 20260502150731 | 52 | 298 | 0.0 | 0.0 | 0.00 | 0.00 | 0.00 | 90 | 1017.8 |
| 20260502150238 | 52 | 303 | 0.0 | 0.0 | 0.00 | 0.00 | 0.00 | 90 | 1017.9 |
| 20260502130731 | 51 | 256 | 0.0 | 0.0 | 0.00 | 0.00 | 0.00 | 91 | 1017.6 |
| 20260502130259 | 51 | 275 | 0.0 | 0.0 | 0.00 | 0.00 | 0.00 | 91 | 1017.6 |
| 20260502123734 | 51 | 340 | 0.0 | 0.0 | 0.00 | 0.00 | 0.00 | 91 | 1017.9 |
| 20260502123222 | 51 | 345 | 0.0 | 0.0 | 0.00 | 0.00 | 0.00 | 91 | 1018.0 |
| 20260502122808 | 51 | 351 | 0.0 | 0.0 | 0.00 | 0.00 | 0.00 | 91 | 1018.0 |
| 20260502122225 | 51 | 351 | 0.0 | 0.0 | 0.00 | 0.00 | 0.00 | 91 | 1018.0 |
| 20260502121733 | 51 | 355 | 0.0 | 1.7 | 0.00 | 0.00 | 0.00 | 91 | 1017.9 |
| 20260502121224 | 51 | 289 | 0.0 | 1.7 | 0.00 | 0.00 | 0.00 | 90 | 1018.0 |
| 20260502120732 | 51 | 289 | 0.0 | 0.9 | 0.00 | 0.00 | 0.00 | 90 | 1017.7 |
| 20260502120300 | 51 | 289 | 0.0 | 1.7 | 0.00 | 0.00 | 0.00 | 90 | 1017.7 |
| 20260502115735 | 51 | 273 | 0.9 | 1.7 | 0.00 | 0.00 | 0.00 | 90 | 1017.8 |
| 20260502115223 | 51 | 152 | 0.0 | 0.9 | 0.00 | 0.00 | 0.00 | 89 | 1017.9 |
| 20260502114731 | 51 | 152 | 0.0 | 1.7 | 0.00 | 0.00 | 0.00 | 89 | 1018.0 |
| 20260502114258 | 51 | 152 | 0.0 | 1.7 | 0.00 | 0.00 | 0.00 | 89 | 1018.0 |
| 20260502113755 | 52 | 150 | 0.0 | 1.7 | 0.00 | 0.00 | 0.00 | 89 | 1018.1 |
| 20260502113231 | 52 | 150 | 0.0 | 1.7 | 0.00 | 0.00 | 0.00 | 88 | 1018.1 |
| 20260502112738 | 52 | 23 | 0.0 | 0.0 | 0.00 | 0.00 | 0.00 | 87 | 1018.0 |
| 20260502112306 | 52 | 23 | 0.0 | 0.0 | 0.00 | 0.00 | 0.00 | 87 | 1018.0 |
| 20260502112234 | 52 | 23 | 0.0 | 0.0 | 0.00 | 0.00 | 0.00 | 87 | 1018.0 |
| 20260502111802 | 52 | 22 | 0.0 | 0.0 | 0.00 | 0.00 | 0.00 | 86 | 1018.1 |
| 20260502111238 | 52 | 22 | 0.0 | 1.7 | 0.00 | 0.00 | 0.00 | 86 | 1018.1 |
| 20260502110726 | 52 | 15 | 0.9 | 1.7 | 0.00 | 0.00 | 0.00 | 86 | 1018.2 |
| 20260502110233 | 52 | 34 | 0.0 | 1.7 | 0.00 | 0.00 | 0.00 | 87 | 1018.5 |
| 20260502105800 | 52 | 28 | 0.0 | 1.7 | 0.00 | 0.00 | 0.00 | 87 | 1018.7 |
| 20260502105728 | 52 | 28 | 0.0 | 1.7 | 0.00 | 0.00 | 0.00 | 87 | 1018.7 |
| 20260502105236 | 52 | 36 | 0.0 | 0.0 | 0.00 | 0.00 | 0.00 | 87 | 1018.7 |
| 20260502104804 | 51 | 227 | 0.0 | 0.0 | 0.00 | 0.00 | 0.00 | 87 | 1018.7 |
| 20260502104732 | 51 | 227 | 0.0 | 0.0 | 0.00 | 0.00 | 0.00 | 87 | 1018.7 |
| 20260502104224 | 51 | 276 | 0.0 | 0.0 | 0.00 | 0.00 | 0.00 | 87 | 1018.6 |
| 20260502103732 | 51 | 285 | 0.0 | 0.0 | 0.00 | 0.00 | 0.00 | 86 | 1018.4 |
| 20260502103240 | 51 | 288 | 0.0 | 0.0 | 0.00 | 0.00 | 0.00 | 86 | 1018.0 |
| 20260502102807 | 52 | 290 | 0.0 | 0.0 | 0.00 | 0.00 | 0.00 | 85 | 1017.9 |
| 20260502102735 | 52 | 290 | 0.0 | 0.0 | 0.00 | 0.00 | 0.00 | 85 | 1017.9 |
| 20260502102223 | 52 | 290 | 0.0 | 0.0 | 0.00 | 0.00 | 0.00 | 85 | 1017.9 |
| 20260502101731 | 52 | 290 | 0.0 | 0.0 | 0.00 | 0.00 | 0.00 | 85 | 1017.8 |
| 20260502101239 | 52 | 290 | 0.0 | 0.0 | 0.00 | 0.00 | 0.00 | 84 | 1017.6 |
| 20260502100807 | 52 | 288 | 0.0 | 0.0 | 0.00 | 0.00 | 0.00 | 84 | 1017.6 |
| 20260502100735 | 52 | 288 | 0.0 | 0.0 | 0.00 | 0.00 | 0.00 | 84 | 1017.6 |
| 20260502100223 | 52 | 57 | 0.0 | 0.0 | 0.00 | 0.00 | 0.00 | 84 | 1017.7 |
| 20260502091238 | 54 | 34 | 0.0 | 0.0 | 0.00 | 0.00 | 0.00 | 80 | 1017.6 |
| 20260502090726 | 54 | 34 | 0.0 | 0.0 | 0.00 | 0.00 | 0.00 | 80 | 1017.7 |
| 20260502090234 | 54 | 288 | 0.0 | 0.0 | 0.00 | 0.00 | 0.00 | 79 | 1017.6 |
| 20260502071224 | 58 | 208 | 0.0 | 0.0 | 0.00 | 0.00 | 0.00 | 65 | 1017.7 |
| 20260502070752 | 58 | 208 | 0.0 | 0.0 | 0.00 | 0.00 | 0.00 | 63 | 1017.7 |
| 20260502070228 | 59 | 208 | 0.0 | 0.0 | 0.00 | 0.00 | 0.00 | 64 | 1017.6 |
| 20260502065733 | 59 | 208 | 0.0 | 0.0 | 0.00 | 0.00 | 0.00 | 63 | 1017.7 |
| 20260502065221 | 60 | 293 | 0.0 | 0.0 | 0.00 | 0.00 | 0.00 | 63 | 1017.5 |
| 20260502064729 | 60 | 300 | 0.0 | 0.9 | 0.00 | 0.00 | 0.00 | 60 | 1017.4 |
| 20260502064237 | 60 | 313 | 0.0 | 2.6 | 0.00 | 0.00 | 0.00 | 60 | 1017.4 |
| 20260502063805 | 61 | 282 | 0.0 | 1.7 | 0.00 | 0.00 | 0.00 | 60 | 1017.5 |
| 20260502063241 | 61 | 313 | 0.0 | 1.7 | 0.00 | 0.00 | 0.00 | 60 | 1017.6 |
| 20260502062808 | 61 | 313 | 0.0 | 2.6 | 0.00 | 0.00 | 0.00 | 59 | 1017.4 |
| 20260502062306 | 61 | 311 | 1.7 | 2.6 | 0.00 | 0.00 | 0.00 | 59 | 1017.4 |
| 20260502061801 | 61 | 281 | 0.9 | 1.7 | 0.00 | 0.00 | 0.00 | 58 | 1017.2 |
| 20260502061729 | 61 | 281 | 0.9 | 1.7 | 0.00 | 0.00 | 0.00 | 58 | 1017.2 |
| 20260502061237 | 61 | 13 | 0.9 | 1.7 | 0.00 | 0.00 | 0.00 | 59 | 1017.1 |
| 20260502060729 | 61 | 306 | 0.0 | 0.9 | 0.00 | 0.00 | 0.00 | 59 | 1017.2 |
| 20260502060237 | 62 | 302 | 0.0 | 1.7 | 0.00 | 0.00 | 0.00 | 59 | 1017.1 |
| 20260502055724 | 62 | 24 | 0.9 | 2.6 | 0.00 | 0.00 | 0.00 | 58 | 1017.0 |
| 20260502055312 | 62 | 327 | 0.9 | 2.6 | 0.00 | 0.00 | 0.00 | 60 | 1017.1 |
| 20260502054808 | 62 | 346 | 0.0 | 0.9 | 0.00 | 0.00 | 0.00 | 60 | 1017.0 |
| 20260502054224 | 62 | 325 | 0.0 | 0.0 | 0.00 | 0.00 | 0.00 | 61 | 1016.9 |
| 20260502053732 | 62 | 332 | 0.0 | 0.0 | 0.00 | 0.00 | 0.00 | 61 | 1017.0 |
| 20260502053240 | 62 | 334 | 0.0 | 1.7 | 0.00 | 0.00 | 0.00 | 61 | 1016.9 |
| 20260502052727 | 62 | 334 | 0.0 | 1.7 | 0.00 | 0.00 | 0.00 | 61 | 1016.9 |
| 20260502052235 | 62 | 327 | 0.0 | 0.9 | 0.00 | 0.00 | 0.00 | 61 | 1017.0 |
| 20260502051723 | 62 | 337 | 0.9 | 1.7 | 0.00 | 0.00 | 0.00 | 61 | 1017.0 |
| 20260502051231 | 62 | 341 | 0.0 | 1.7 | 0.00 | 0.00 | 0.00 | 62 | 1016.9 |
| 20260502050723 | 62 | 342 | 0.0 | 1.7 | 0.00 | 0.00 | 0.00 | 62 | 1016.9 |
| 20260502050231 | 62 | 360 | 0.0 | 1.7 | 0.00 | 0.00 | 0.00 | 62 | 1016.9 |
| 20260502045738 | 62 | 304 | 0.0 | 1.7 | 0.00 | 0.00 | 0.00 | 63 | 1016.9 |
| 20260502045306 | 62 | 292 | 0.0 | 1.7 | 0.00 | 0.00 | 0.00 | 63 | 1016.8 |
| 20260502045234 | 62 | 292 | 0.0 | 1.7 | 0.00 | 0.00 | 0.00 | 63 | 1016.8 |
| 20260502044721 | 62 | 349 | 0.0 | 1.7 | 0.00 | 0.00 | 0.00 | 63 | 1016.8 |
| 20260502044229 | 62 | 345 | 0.9 | 1.7 | 0.00 | 0.00 | 0.00 | 63 | 1016.7 |
| 20260502043737 | 62 | 331 | 0.9 | 4.3 | 0.00 | 0.00 | 0.00 | 64 | 1016.5 |
| 20260502043225 | 62 | 307 | 0.9 | 4.3 | 0.00 | 0.00 | 0.00 | 64 | 1016.6 |
| 20260502042812 | 62 | 321 | 0.0 | 1.7 | 0.00 | 0.00 | 0.00 | 64 | 1016.7 |
| 20260502042740 | 62 | 321 | 0.0 | 1.7 | 0.00 | 0.00 | 0.00 | 64 | 1016.7 |
| 20260502042308 | 62 | 311 | 0.9 | 3.5 | 0.00 | 0.00 | 0.00 | 64 | 1016.6 |
| 20260502041725 | 62 | 282 | 0.0 | 3.5 | 0.00 | 0.00 | 0.00 | 64 | 1016.6 |
| 20260502041233 | 63 | 296 | 0.9 | 2.6 | 0.00 | 0.00 | 0.00 | 64 | 1016.5 |
| 20260502040801 | 63 | 310 | 0.9 | 2.6 | 0.00 | 0.00 | 0.00 | 63 | 1016.4 |
| 20260502040729 | 63 | 310 | 0.9 | 2.6 | 0.00 | 0.00 | 0.00 | 63 | 1016.4 |
| 20260502040257 | 63 | 339 | 0.9 | 1.7 | 0.00 | 0.00 | 0.00 | 62 | 1016.4 |
| 20260502040225 | 63 | 339 | 0.9 | 1.7 | 0.00 | 0.00 | 0.00 | 62 | 1016.4 |
| 20260502035732 | 63 | 292 | 0.0 | 1.7 | 0.00 | 0.00 | 0.00 | 61 | 1016.4 |
| 20260502035223 | 64 | 284 | 0.0 | 2.6 | 0.00 | 0.00 | 0.00 | 61 | 1016.4 |
| 20260502034731 | 64 | 268 | 0.9 | 1.7 | 0.00 | 0.00 | 0.00 | 60 | 1016.4 |
| 20260502034239 | 64 | 315 | 0.9 | 2.6 | 0.00 | 0.00 | 0.00 | 59 | 1016.3 |
| 20260502033727 | 64 | 326 | 0.9 | 2.6 | 0.00 | 0.00 | 0.00 | 58 | 1016.2 |
| 20260502033255 | 64 | 325 | 0.9 | 1.7 | 0.00 | 0.00 | 0.00 | 58 | 1015.9 |
| 20260502032730 | 65 | 323 | 0.9 | 1.7 | 0.00 | 0.00 | 0.00 | 56 | 1016.0 |
| 20260502032238 | 65 | 255 | 0.0 | 1.7 | 0.00 | 0.00 | 0.00 | 55 | 1016.0 |
| 20260502031805 | 65 | 302 | 0.9 | 2.6 | 0.00 | 0.00 | 0.00 | 54 | 1015.9 |
| 20260502031222 | 65 | 314 | 0.9 | 3.5 | 0.00 | 0.00 | 0.00 | 54 | 1015.8 |
| 20260502030730 | 65 | 326 | 0.0 | 3.5 | 0.00 | 0.00 | 0.00 | 53 | 1015.7 |
| 20260502030238 | 66 | 294 | 0.9 | 2.6 | 0.00 | 0.00 | 0.00 | 52 | 1015.8 |
| 20260502025804 | 66 | 290 | 1.7 | 2.6 | 0.00 | 0.00 | 0.00 | 51 | 1015.8 |
| 20260502025225 | 66 | 254 | 0.0 | 1.7 | 0.00 | 0.00 | 0.00 | 51 | 1015.8 |
| 20260502024733 | 66 | 254 | 0.9 | 2.6 | 0.00 | 0.00 | 0.00 | 51 | 1015.6 |
| 20260502024221 | 66 | 301 | 0.0 | 1.7 | 0.00 | 0.00 | 0.00 | 50 | 1015.6 |
| 20260502023729 | 67 | 306 | 0.9 | 3.5 | 0.00 | 0.00 | 0.00 | 51 | 1015.6 |
| 20260502023237 | 67 | 308 | 0.9 | 3.5 | 0.00 | 0.00 | 0.00 | 49 | 1015.6 |
| 20260502022724 | 67 | 328 | 0.0 | 4.3 | 0.00 | 0.00 | 0.00 | 50 | 1015.6 |
| 20260502022252 | 68 | 342 | 0.0 | 2.6 | 0.00 | 0.00 | 0.00 | 50 | 1015.4 |
| 20260502021729 | 68 | 328 | 0.9 | 3.5 | 0.00 | 0.00 | 0.00 | 47 | 1015.6 |
| 20260502021257 | 68 | 327 | 0.9 | 4.3 | 0.00 | 0.00 | 0.00 | 47 | 1015.7 |
| 20260502020753 | 68 | 333 | 0.9 | 4.3 | 0.00 | 0.00 | 0.00 | 46 | 1015.8 |
| 20260502020721 | 68 | 333 | 0.9 | 4.3 | 0.00 | 0.00 | 0.00 | 46 | 1015.8 |
| 20260502020229 | 68 | 349 | 0.9 | 2.6 | 0.00 | 0.00 | 0.00 | 47 | 1015.7 |
| 20260502015756 | 68 | 298 | 0.9 | 6.1 | 0.00 | 0.00 | 0.00 | 46 | 1015.6 |
| 20260502015232 | 69 | 309 | 1.7 | 5.2 | 0.00 | 0.00 | 0.00 | 45 | 1015.5 |
| 20260502014800 | 69 | 360 | 1.7 | 5.2 | 0.00 | 0.00 | 0.00 | 45 | 1015.7 |
| 20260502014236 | 70 | 335 | 0.0 | 2.6 | 0.00 | 0.00 | 0.00 | 45 | 1015.7 |
| 20260502013804 | 70 | 9 | 0.9 | 2.6 | 0.00 | 0.00 | 0.00 | 45 | 1015.6 |
| 20260502013732 | 70 | 9 | 0.9 | 2.6 | 0.00 | 0.00 | 0.00 | 45 | 1015.6 |
| 20260502013300 | 70 | 10 | 0.9 | 4.3 | 0.00 | 0.00 | 0.00 | 46 | 1015.8 |
| 20260502012735 | 70 | 322 | 1.7 | 4.3 | 0.00 | 0.00 | 0.00 | 47 | 1015.9 |
| 20260502012306 | 69 | 320 | 0.9 | 4.3 | 0.00 | 0.00 | 0.00 | 47 | 1015.7 |
| 20260502012231 | 69 | 320 | 0.9 | 4.3 | 0.00 | 0.00 | 0.00 | 47 | 1015.7 |
| 20260502011723 | 69 | 307 | 1.7 | 6.1 | 0.00 | 0.00 | 0.00 | 47 | 1015.7 |
| 20260502011311 | 69 | 311 | 0.9 | 6.1 | 0.00 | 0.00 | 0.00 | 47 | 1015.9 |
| 20260502010727 | 69 | 331 | 2.6 | 6.1 | 0.00 | 0.00 | 0.00 | 46 | 1015.8 |
| 20260502010235 | 70 | 289 | 1.7 | 3.5 | 0.00 | 0.00 | 0.00 | 46 | 1015.6 |
| 20260502005721 | 70 | 304 | 0.9 | 2.6 | 0.00 | 0.00 | 0.00 | 47 | 1015.8 |
| 20260502005309 | 70 | 18 | 0.0 | 1.7 | 0.00 | 0.00 | 0.00 | 46 | 1015.8 |
| 20260502005237 | 70 | 18 | 0.0 | 1.7 | 0.00 | 0.00 | 0.00 | 46 | 1015.8 |
| 20260502004805 | 70 | 355 | 0.0 | 5.2 | 0.00 | 0.00 | 0.00 | 47 | 1015.8 |
| 20260502004733 | 70 | 355 | 0.0 | 5.2 | 0.00 | 0.00 | 0.00 | 47 | 1015.8 |
| 20260502004301 | 71 | 288 | 1.7 | 5.2 | 0.00 | 0.00 | 0.00 | 45 | 1015.8 |
| 20260502004229 | 71 | 288 | 1.7 | 5.2 | 0.00 | 0.00 | 0.00 | 45 | 1015.8 |
| 20260502003737 | 71 | 340 | 0.9 | 7.0 | 0.00 | 0.00 | 0.00 | 45 | 1015.7 |
| 20260502003305 | 71 | 314 | 2.6 | 7.0 | 0.00 | 0.00 | 0.00 | 44 | 1015.8 |
| 20260502002740 | 71 | 288 | 1.7 | 3.5 | 0.00 | 0.00 | 0.00 | 45 | 1015.9 |
| 20260502002228 | 71 | 25 | 1.7 | 3.5 | 0.00 | 0.00 | 0.00 | 44 | 1015.7 |
| 20260502001736 | 71 | 323 | 0.9 | 3.5 | 0.00 | 0.00 | 0.00 | 44 | 1015.8 |
| 20260502001304 | 71 | 347 | 0.9 | 6.1 | 0.00 | 0.00 | 0.00 | 44 | 1015.8 |
| 20260502000800 | 72 | 282 | 0.9 | 6.1 | 0.00 | 0.00 | 0.00 | 43 | 1015.9 |
| 20260502000237 | 72 | 292 | 1.7 | 3.5 | 0.00 | 0.00 | 0.00 | 42 | 1015.9 |
| 20260501235724 | 73 | 5 | 0.0 | 2.6 | 0.00 | 0.00 | 0.00 | 42 | 1015.9 |
| 20260501235252 | 73 | 355 | 0.9 | 5.2 | 0.00 | 0.00 | 0.00 | 43 | 1015.8 |
| 20260501234733 | 73 | 329 | 2.6 | 6.1 | 0.00 | 0.00 | 0.00 | 42 | 1015.7 |
| 20260501234221 | 73 | 9 | 0.9 | 2.6 | 0.00 | 0.00 | 0.00 | 44 | 1015.9 |
| 20260501233729 | 73 | 347 | 1.7 | 4.3 | 0.00 | 0.00 | 0.00 | 43 | 1015.8 |
| 20260501233237 | 73 | 304 | 1.7 | 4.3 | 0.00 | 0.00 | 0.00 | 42 | 1015.8 |
| 20260501232724 | 74 | 337 | 2.6 | 3.5 | 0.00 | 0.00 | 0.00 | 42 | 1015.9 |
| 20260501232311 | 74 | 327 | 0.9 | 4.3 | 0.00 | 0.00 | 0.00 | 41 | 1016.0 |
| 20260501231727 | 74 | 355 | 1.7 | 4.3 | 0.00 | 0.00 | 0.00 | 41 | 1016.1 |
| 20260501231235 | 74 | 226 | 0.9 | 3.5 | 0.00 | 0.00 | 0.00 | 42 | 1016.1 |
| 20260501230803 | 73 | 309 | 0.9 | 5.2 | 0.00 | 0.00 | 0.00 | 43 | 1016.1 |
| 20260501230731 | 73 | 309 | 0.9 | 5.2 | 0.00 | 0.00 | 0.00 | 43 | 1016.1 |
| 20260501230239 | 73 | 5 | 2.6 | 7.0 | 0.00 | 0.00 | 0.00 | 42 | 1016.3 |
| 20260501225726 | 74 | 314 | 0.9 | 4.3 | 0.00 | 0.00 | 0.00 | 42 | 1016.5 |
| 20260501225254 | 74 | 306 | 1.7 | 4.3 | 0.00 | 0.00 | 0.00 | 42 | 1016.6 |
| 20260501225222 | 74 | 306 | 1.7 | 4.3 | 0.00 | 0.00 | 0.00 | 42 | 1016.6 |
| 20260501224729 | 73 | 13 | 1.7 | 5.2 | 0.00 | 0.00 | 0.00 | 42 | 1016.6 |
| 20260501224221 | 73 | 335 | 1.7 | 5.2 | 0.00 | 0.00 | 0.00 | 40 | 1016.6 |
| 20260501223729 | 73 | 307 | 1.7 | 7.0 | 0.00 | 0.00 | 0.00 | 40 | 1016.6 |
| 20260501223256 | 73 | 320 | 2.6 | 7.0 | 0.00 | 0.00 | 0.00 | 41 | 1016.7 |
| 20260501222732 | 73 | 313 | 1.7 | 5.2 | 0.00 | 0.00 | 0.00 | 39 | 1016.6 |
| 20260501222259 | 73 | 355 | 2.6 | 7.0 | 0.00 | 0.00 | 0.00 | 41 | 1016.8 |
| 20260501221736 | 73 | 301 | 2.6 | 7.0 | 0.00 | 0.00 | 0.00 | 41 | 1016.8 |
| 20260501221304 | 74 | 350 | 1.7 | 7.0 | 0.00 | 0.00 | 0.00 | 39 | 1016.8 |
| 20260501221232 | 74 | 350 | 1.7 | 7.0 | 0.00 | 0.00 | 0.00 | 39 | 1016.8 |
| 20260501220740 | 74 | 144 | 1.7 | 7.0 | 0.00 | 0.00 | 0.00 | 40 | 1016.8 |
| 20260501220228 | 74 | 295 | 2.6 | 7.0 | 0.00 | 0.00 | 0.00 | 40 | 1016.9 |
| 20260501215735 | 74 | 306 | 0.9 | 5.2 | 0.00 | 0.00 | 0.00 | 41 | 1016.9 |
| 20260501215223 | 74 | 324 | 2.6 | 5.2 | 0.00 | 0.00 | 0.00 | 40 | 1017.0 |
| 20260501214731 | 73 | 333 | 1.7 | 5.2 | 0.00 | 0.00 | 0.00 | 40 | 1016.9 |
| 20260501214223 | 73 | 347 | 1.7 | 4.3 | 0.00 | 0.00 | 0.00 | 40 | 1017.0 |
| 20260501213807 | 73 | 313 | 1.7 | 5.2 | 0.00 | 0.00 | 0.00 | 41 | 1017.0 |
| 20260501213227 | 72 | 360 | 1.7 | 5.2 | 0.00 | 0.00 | 0.00 | 40 | 1017.1 |
| 20260501212734 | 73 | 275 | 1.7 | 5.2 | 0.00 | 0.00 | 0.00 | 40 | 1017.1 |
| 20260501212222 | 73 | 248 | 1.7 | 4.3 | 0.00 | 0.00 | 0.00 | 43 | 1017.1 |
| 20260501211730 | 72 | 333 | 1.7 | 4.3 | 0.00 | 0.00 | 0.00 | 44 | 1017.1 |
| 20260501211238 | 72 | 328 | 2.6 | 6.1 | 0.00 | 0.00 | 0.00 | 44 | 1017.2 |
| 20260501210806 | 72 | 317 | 0.9 | 7.0 | 0.00 | 0.00 | 0.00 | 46 | 1017.0 |
| 20260501210734 | 72 | 317 | 0.9 | 7.0 | 0.00 | 0.00 | 0.00 | 46 | 1017.0 |
| 20260501210222 | 72 | 254 | 3.5 | 7.0 | 0.00 | 0.00 | 0.00 | 44 | 1017.1 |
| 20260501205728 | 73 | 282 | 1.7 | 4.3 | 0.00 | 0.00 | 0.00 | 45 | 1017.1 |
| 20260501205236 | 72 | 74 | 2.6 | 6.1 | 0.00 | 0.00 | 0.00 | 45 | 1017.1 |
| 20260501204803 | 72 | 240 | 3.5 | 6.1 | 0.00 | 0.00 | 0.00 | 45 | 1017.0 |
| 20260501204240 | 72 | 133 | 0.9 | 5.2 | 0.00 | 0.00 | 0.00 | 48 | 1017.0 |